Wetterdaten: Woche 26.01.09 - 01.02.09 (KW5)
Datum Zeit Temperatur Luftfeuchte Luftdruck Niederschlag Windrichtung Wind
26.01.2009 00:00 -3,1 C 91 % 998,1 hPa 0,0 l/m N 4,1 km/h (1 Bft)
26.01.2009 01:00 -3,4 C 92 % 997,9 hPa 0,0 l/m NW 3,2 km/h (1 Bft)
26.01.2009 02:00 -3,8 C 92 % 998,0 hPa 0,0 l/m NW 3,1 km/h (1 Bft)
26.01.2009 03:00 -4,3 C 93 % 998,3 hPa 0,0 l/m N 0,9 km/h (0 Bft)
26.01.2009 04:00 -4,7 C 93 % 998,5 hPa 0,0 l/m N 0,0 km/h (0 Bft)
26.01.2009 05:00 -5,2 C 93 % 998,7 hPa 0,0 l/m N 0,0 km/h (0 Bft)
26.01.2009 06:00 -5,6 C 93 % 999,2 hPa 0,0 l/m N 0,1 km/h (0 Bft)
26.01.2009 07:00 -5,9 C 93 % 999,4 hPa 0,0 l/m N-NW 1,5 km/h (1 Bft)
26.01.2009 08:00 -6,2 C 94 % 1000,0 hPa 0,0 l/m N-NW 2,7 km/h (1 Bft)
26.01.2009 09:00 -5,6 C 96 % 1000,5 hPa 0,0 l/m N-NW 3,7 km/h (1 Bft)
26.01.2009 10:00 -4,2 C 97 % 1001,1 hPa 0,0 l/m N 5,2 km/h (1 Bft)
26.01.2009 11:00 -2,3 C 95 % 1001,1 hPa 0,0 l/m N 3,9 km/h (1 Bft)
26.01.2009 12:00 0,3 C 89 % 1000,9 hPa 0,0 l/m S-SW 3,9 km/h (1 Bft)
26.01.2009 13:00 2,4 C 79 % 1000,6 hPa 0,0 l/m S 3,5 km/h (1 Bft)
26.01.2009 14:00 3,1 C 77 % 1000,8 hPa 0,0 l/m S 3,1 km/h (1 Bft)
26.01.2009 15:00 3,0 C 81 % 1000,8 hPa 0,0 l/m NW 4,3 km/h (1 Bft)
26.01.2009 16:00 2,5 C 84 % 1001,5 hPa 0,0 l/m N-NO 4,4 km/h (1 Bft)
26.01.2009 17:00 1,3 C 86 % 1002,0 hPa 0,0 l/m N-NW 2,7 km/h (1 Bft)
26.01.2009 18:00 -0,0 C 90 % 1002,5 hPa 0,0 l/m N 1,6 km/h (1 Bft)
26.01.2009 19:00 -0,9 C 92 % 1003,4 hPa 0,0 l/m N 2,7 km/h (1 Bft)
26.01.2009 20:00 -1,6 C 93 % 1004,2 hPa 0,0 l/m N 3,1 km/h (1 Bft)
26.01.2009 21:00 -2,2 C 93 % 1004,7 hPa 0,0 l/m N 1,9 km/h (1 Bft)
26.01.2009 22:00 -2,7 C 94 % 1005,2 hPa 0,0 l/m N 1,6 km/h (1 Bft)
26.01.2009 23:00 -3,2 C 93 % 1005,6 hPa 0,0 l/m N 1,3 km/h (1 Bft)
27.01.2009 00:00 -3,6 C 95 % 1006,0 hPa 0,0 l/m N 3,7 km/h (1 Bft)
27.01.2009 01:00 -3,8 C 94 % 1006,5 hPa 0,0 l/m N 0,8 km/h (0 Bft)
27.01.2009 02:00 -4,4 C 93 % 1007,1 hPa 0,0 l/m N 0,0 km/h (0 Bft)
27.01.2009 03:00 -4,9 C 93 % 1007,8 hPa 0,0 l/m N 0,3 km/h (0 Bft)
27.01.2009 04:00 -5,0 C 95 % 1008,1 hPa 0,0 l/m N 0,5 km/h (0 Bft)
27.01.2009 05:00 -4,8 C 95 % 1008,6 hPa 0,0 l/m N-NO 1,1 km/h (0 Bft)
27.01.2009 06:00 -4,6 C 96 % 1008,7 hPa 0,0 l/m N-NW 7,9 km/h (2 Bft)
27.01.2009 07:00 -4,4 C 94 % 1009,6 hPa 0,0 l/m N 2,5 km/h (1 Bft)
27.01.2009 08:00 -4,6 C 95 % 1010,4 hPa 0,0 l/m N-NW 3,3 km/h (1 Bft)
27.01.2009 09:00 -4,0 C 96 % 1011,0 hPa 0,0 l/m N-NW 3,7 km/h (1 Bft)
27.01.2009 10:00 -3,2 C 95 % 1011,5 hPa 0,0 l/m N-NW 5,5 km/h (1 Bft)
27.01.2009 11:00 -2,5 C 95 % 1011,9 hPa 0,0 l/m N 6,7 km/h (2 Bft)
27.01.2009 12:00 -1,8 C 94 % 1011,9 hPa 0,0 l/m O-NO 7,8 km/h (2 Bft)
27.01.2009 13:00 -1,4 C 92 % 1012,1 hPa 0,0 l/m O 5,5 km/h (1 Bft)
27.01.2009 14:00 -1,1 C 90 % 1012,2 hPa 0,0 l/m NO 6,4 km/h (2 Bft)
27.01.2009 15:00 -0,7 C 88 % 1012,8 hPa 0,0 l/m O 4,8 km/h (1 Bft)
27.01.2009 16:00 -0,5 C 87 % 1013,8 hPa 0,0 l/m NO 6,0 km/h (2 Bft)
27.01.2009 17:00 -0,7 C 87 % 1014,4 hPa 0,0 l/m O-NO 4,3 km/h (1 Bft)
27.01.2009 18:00 -0,8 C 87 % 1015,0 hPa 0,0 l/m NO 4,4 km/h (1 Bft)
27.01.2009 19:00 -1,0 C 87 % 1015,5 hPa 0,0 l/m NO 3,5 km/h (1 Bft)
27.01.2009 20:00 -1,1 C 89 % 1015,9 hPa 0,0 l/m NO 3,2 km/h (1 Bft)
27.01.2009 21:00 -1,3 C 89 % 1015,9 hPa 0,0 l/m N-NO 3,6 km/h (1 Bft)
27.01.2009 22:00 -1,4 C 86 % 1016,3 hPa 0,0 l/m N 4,1 km/h (1 Bft)
27.01.2009 23:00 -1,4 C 85 % 1016,5 hPa 0,0 l/m N-NO 3,5 km/h (1 Bft)
28.01.2009 00:00 -1,4 C 85 % 1016,4 hPa 0,0 l/m N-NO 2,8 km/h (1 Bft)
28.01.2009 01:00 -1,6 C 84 % 1016,5 hPa 0,0 l/m N-NO 4,9 km/h (1 Bft)
28.01.2009 02:00 -1,8 C 82 % 1016,7 hPa 0,0 l/m N-NO 4,7 km/h (1 Bft)
28.01.2009 03:00 -1,8 C 80 % 1016,9 hPa 0,0 l/m NO 4,7 km/h (1 Bft)
28.01.2009 04:00 -2,1 C 80 % 1016,8 hPa 0,0 l/m W-NW 4,9 km/h (1 Bft)
28.01.2009 05:00 -2,2 C 79 % 1016,7 hPa 0,0 l/m W-NW 4,7 km/h (1 Bft)
28.01.2009 06:00 -2,2 C 80 % 1016,7 hPa 0,0 l/m O 2,8 km/h (1 Bft)
28.01.2009 07:00 -2,3 C 81 % 1017,0 hPa 0,0 l/m N 1,1 km/h (0 Bft)
28.01.2009 08:00 -2,3 C 82 % 1017,1 hPa 0,0 l/m NO 2,1 km/h (1 Bft)
28.01.2009 09:00 -2,1 C 82 % 1017,2 hPa 0,0 l/m N-NO 3,5 km/h (1 Bft)
28.01.2009 10:00 -1,8 C 81 % 1017,3 hPa 0,0 l/m N-NO 4,5 km/h (1 Bft)
28.01.2009 11:00 -1,1 C 80 % 1017,2 hPa 0,0 l/m NO 5,1 km/h (1 Bft)
28.01.2009 12:00 -0,5 C 80 % 1016,9 hPa 0,0 l/m NO 7,8 km/h (2 Bft)
28.01.2009 13:00 -0,1 C 79 % 1016,4 hPa 0,0 l/m O-NO 7,6 km/h (2 Bft)
28.01.2009 14:00 0,0 C 81 % 1016,7 hPa 0,0 l/m O-NO 9,7 km/h (2 Bft)
28.01.2009 15:00 -0,1 C 85 % 1017,0 hPa 0,0 l/m O-NO 11,8 km/h (2 Bft)
28.01.2009 16:00 -0,5 C 90 % 1017,3 hPa 0,0 l/m NO 12,0 km/h (2 Bft)
28.01.2009 17:00 -0,8 C 91 % 1017,4 hPa 0,0 l/m O-NO 9,8 km/h (2 Bft)
28.01.2009 18:00 -0,8 C 91 % 1017,4 hPa 0,0 l/m NO 10,2 km/h (2 Bft)
28.01.2009 19:00 -0,8 C 90 % 1017,4 hPa 0,0 l/m O-NO 11,8 km/h (2 Bft)
28.01.2009 20:00 -1,0 C 87 % 1017,8 hPa 0,0 l/m O-NO 13,2 km/h (3 Bft)
28.01.2009 21:00 -1,1 C 84 % 1017,9 hPa 0,0 l/m O 15,0 km/h (3 Bft)
28.01.2009 22:00 -1,3 C 84 % 1017,7 hPa 0,0 l/m O 13,4 km/h (3 Bft)
28.01.2009 23:00 -1,4 C 84 % 1017,6 hPa 0,0 l/m O 17,3 km/h (3 Bft)
29.01.2009 00:00 -1,6 C 85 % 1017,9 hPa 0,0 l/m O 12,5 km/h (3 Bft)
29.01.2009 01:00 -1,6 C 85 % 1018,0 hPa 0,0 l/m O-NO 14,1 km/h (3 Bft)
29.01.2009 02:00 -1,7 C 85 % 1018,1 hPa 0,0 l/m O-NO 11,0 km/h (2 Bft)
29.01.2009 03:00 -1,7 C 85 % 1018,0 hPa 0,0 l/m O-NO 13,7 km/h (3 Bft)
29.01.2009 04:00 -1,7 C 86 % 1017,8 hPa 0,0 l/m NO 14,2 km/h (3 Bft)
29.01.2009 05:00 -1,7 C 86 % 1017,6 hPa 0,0 l/m O-NO 13,7 km/h (3 Bft)
29.01.2009 06:00 -1,4 C 87 % 1017,5 hPa 0,0 l/m NO 18,4 km/h (3 Bft)
29.01.2009 07:00 -1,2 C 88 % 1017,5 hPa 0,0 l/m O-NO 17,4 km/h (3 Bft)
29.01.2009 08:00 -1,2 C 88 % 1018,1 hPa 0,0 l/m O-NO 17,0 km/h (3 Bft)
29.01.2009 09:00 -1,1 C 88 % 1018,3 hPa 0,0 l/m O-NO 18,9 km/h (3 Bft)
29.01.2009 10:00 -0,8 C 88 % 1018,6 hPa 0,0 l/m O-NO 15,6 km/h (3 Bft)
29.01.2009 11:00 -0,1 C 86 % 1018,6 hPa 0,0 l/m O-NO 17,4 km/h (3 Bft)
29.01.2009 12:00 0,3 C 84 % 1018,5 hPa 0,0 l/m NO 19,4 km/h (3 Bft)
29.01.2009 13:00 0,9 C 80 % 1017,8 hPa 0,0 l/m O 21,6 km/h (4 Bft)
29.01.2009 14:00 1,6 C 76 % 1017,8 hPa 0,0 l/m O-NO 19,6 km/h (3 Bft)
29.01.2009 15:00 1,2 C 76 % 1018,3 hPa 0,0 l/m O-NO 19,7 km/h (3 Bft)
29.01.2009 16:00 0,8 C 78 % 1018,8 hPa 0,0 l/m O-NO 14,9 km/h (3 Bft)
29.01.2009 17:00 0,2 C 81 % 1019,2 hPa 0,0 l/m NO 16,1 km/h (3 Bft)
29.01.2009 18:00 -0,3 C 83 % 1019,5 hPa 0,0 l/m O-NO 15,0 km/h (3 Bft)
29.01.2009 19:00 -0,4 C 84 % 1019,7 hPa 0,0 l/m O-NO 18,1 km/h (3 Bft)
29.01.2009 20:00 -0,4 C 84 % 1019,9 hPa 0,0 l/m O 18,5 km/h (3 Bft)
29.01.2009 21:00 -0,5 C 85 % 1020,0 hPa 0,0 l/m O-NO 20,0 km/h (4 Bft)
29.01.2009 22:00 -0,6 C 86 % 1020,2 hPa 0,0 l/m O-NO 15,6 km/h (3 Bft)
29.01.2009 23:00 -0,8 C 85 % 1020,2 hPa 0,0 l/m O-NO 11,7 km/h (2 Bft)
30.01.2009 00:00 -0,8 C 85 % 1020,2 hPa 0,0 l/m O 16,0 km/h (3 Bft)
30.01.2009 01:00 -0,9 C 84 % 1020,4 hPa 0,0 l/m O-NO 15,6 km/h (3 Bft)
30.01.2009 02:00 -1,0 C 84 % 1020,9 hPa 0,0 l/m O 16,9 km/h (3 Bft)
30.01.2009 03:00 -1,3 C 85 % 1021,0 hPa 0,0 l/m O 16,5 km/h (3 Bft)
30.01.2009 04:00 -1,6 C 86 % 1021,3 hPa 0,0 l/m O 12,9 km/h (3 Bft)
30.01.2009 05:00 -1,7 C 86 % 1021,2 hPa 0,0 l/m O 15,2 km/h (3 Bft)
30.01.2009 06:00 -1,9 C 87 % 1021,1 hPa 0,0 l/m O 17,4 km/h (3 Bft)
30.01.2009 07:00 -2,2 C 88 % 1021,3 hPa 0,0 l/m O 18,4 km/h (3 Bft)
30.01.2009 08:00 -2,3 C 89 % 1021,5 hPa 0,0 l/m O 15,9 km/h (3 Bft)
30.01.2009 09:00 -2,0 C 89 % 1021,4 hPa 0,0 l/m O 15,4 km/h (3 Bft)
30.01.2009 10:00 -1,8 C 89 % 1021,7 hPa 0,0 l/m O 17,0 km/h (3 Bft)
30.01.2009 11:00 -1,5 C 88 % 1021,8 hPa 0,0 l/m O 18,2 km/h (3 Bft)
30.01.2009 12:00 -1,2 C 87 % 1021,5 hPa 0,0 l/m O-NO 16,6 km/h (3 Bft)
30.01.2009 13:00 -1,1 C 88 % 1020,7 hPa 0,0 l/m NO 18,2 km/h (3 Bft)
30.01.2009 14:00 -1,3 C 88 % 1020,4 hPa 0,0 l/m O-NO 18,6 km/h (3 Bft)
30.01.2009 15:00 -1,3 C 88 % 1020,2 hPa 0,0 l/m O-NO 20,1 km/h (4 Bft)
30.01.2009 16:00 -1,4 C 88 % 1020,4 hPa 0,0 l/m O 18,6 km/h (3 Bft)
30.01.2009 17:00 -1,8 C 88 % 1020,6 hPa 0,0 l/m O-SO 16,4 km/h (3 Bft)
30.01.2009 18:00 -2,2 C 90 % 1020,8 hPa 0,0 l/m O-SO 14,1 km/h (3 Bft)
30.01.2009 19:00 -2,4 C 90 % 1020,8 hPa 0,0 l/m O-NO 15,6 km/h (3 Bft)
30.01.2009 20:00 -2,7 C 89 % 1020,7 hPa 0,0 l/m O 14,2 km/h (3 Bft)
30.01.2009 21:00 -2,8 C 90 % 1020,6 hPa 0,0 l/m O 19,8 km/h (4 Bft)
30.01.2009 22:00 -3,3 C 90 % 1020,6 hPa 0,0 l/m O 22,2 km/h (4 Bft)
30.01.2009 23:00 -3,4 C 91 % 1020,3 hPa 0,0 l/m O-NO 19,6 km/h (3 Bft)
31.01.2009 00:00 -3,7 C 89 % 1020,0 hPa 0,0 l/m O-NO 19,2 km/h (3 Bft)
31.01.2009 01:00 -3,9 C 88 % 1019,6 hPa 0,0 l/m O-NO 17,8 km/h (3 Bft)
31.01.2009 02:00 -4,0 C 88 % 1019,5 hPa 0,0 l/m O 17,3 km/h (3 Bft)
31.01.2009 03:00 -4,1 C 87 % 1019,4 hPa 0,0 l/m O 16,2 km/h (3 Bft)
31.01.2009 04:00 -4,2 C 86 % 1019,2 hPa 0,0 l/m O-SO 18,6 km/h (3 Bft)
31.01.2009 05:00 -4,2 C 85 % 1019,0 hPa 0,0 l/m O 17,7 km/h (3 Bft)
31.01.2009 06:00 -4,1 C 84 % 1018,7 hPa 0,0 l/m O 19,3 km/h (3 Bft)
31.01.2009 07:00 -4,1 C 84 % 1018,6 hPa 0,0 l/m O-SO 20,1 km/h (4 Bft)
31.01.2009 08:00 -4,1 C 84 % 1018,4 hPa 0,0 l/m O-SO 24,3 km/h (4 Bft)
31.01.2009 09:00 -4,0 C 84 % 1018,1 hPa 0,0 l/m O-SO 21,4 km/h (4 Bft)
31.01.2009 10:00 -3,9 C 84 % 1018,0 hPa 0,0 l/m O 21,3 km/h (4 Bft)
31.01.2009 11:00 -3,7 C 84 % 1017,4 hPa 0,0 l/m O-SO 20,0 km/h (4 Bft)
31.01.2009 12:00 -3,6 C 83 % 1016,7 hPa 0,0 l/m O-SO 22,6 km/h (4 Bft)
31.01.2009 13:00 -3,1 C 82 % 1015,8 hPa 0,0 l/m O 20,0 km/h (4 Bft)
31.01.2009 14:00 -2,7 C 80 % 1015,3 hPa 0,0 l/m O-SO 20,8 km/h (4 Bft)
31.01.2009 15:00 -2,1 C 76 % 1015,0 hPa 0,0 l/m O-SO 19,8 km/h (4 Bft)
31.01.2009 16:00 -1,8 C 74 % 1014,9 hPa 0,0 l/m NO 21,0 km/h (4 Bft)
31.01.2009 17:00 -1,7 C 73 % 1014,8 hPa 0,0 l/m O-NO 21,2 km/h (4 Bft)
31.01.2009 18:00 -1,7 C 73 % 1014,8 hPa 0,0 l/m O 19,3 km/h (3 Bft)
31.01.2009 19:00 -1,8 C 73 % 1014,5 hPa 0,0 l/m O 19,6 km/h (3 Bft)
31.01.2009 20:00 -1,9 C 73 % 1014,1 hPa 0,0 l/m O-SO 23,3 km/h (4 Bft)
31.01.2009 21:00 -1,9 C 74 % 1013,7 hPa 0,0 l/m O-NO 18,0 km/h (3 Bft)
31.01.2009 22:00 -2,1 C 71 % 1013,2 hPa 0,0 l/m O 17,8 km/h (3 Bft)
31.01.2009 23:00 -2,9 C 73 % 1012,8 hPa 0,0 l/m O 11,1 km/h (2 Bft)
01.02.2009 00:00 -3,5 C 80 % 1012,0 hPa 0,0 l/m O 11,3 km/h (2 Bft)
01.02.2009 01:00 -3,3 C 80 % 1011,2 hPa 0,0 l/m O 14,6 km/h (3 Bft)
01.02.2009 02:00 -3,2 C 80 % 1010,4 hPa 0,0 l/m O-SO 17,0 km/h (3 Bft)
01.02.2009 03:00 -3,4 C 80 % 1009,9 hPa 0,0 l/m O 14,4 km/h (3 Bft)
01.02.2009 04:00 -3,4 C 77 % 1009,2 hPa 0,0 l/m O-SO 18,8 km/h (3 Bft)
01.02.2009 05:00 -3,4 C 76 % 1008,6 hPa 0,0 l/m O 16,0 km/h (3 Bft)
01.02.2009 06:00 -3,6 C 78 % 1008,1 hPa 0,0 l/m O 13,4 km/h (3 Bft)
01.02.2009 07:00 -3,9 C 80 % 1007,6 hPa 0,0 l/m O 15,8 km/h (3 Bft)
01.02.2009 08:00 -4,1 C 81 % 1007,0 hPa 0,0 l/m O-NO 17,0 km/h (3 Bft)
01.02.2009 09:00 -3,6 C 81 % 1006,5 hPa 0,0 l/m O-SO 16,9 km/h (3 Bft)
01.02.2009 10:00 -3,2 C 79 % 1005,9 hPa 0,0 l/m O 19,2 km/h (3 Bft)
01.02.2009 11:00 -2,6 C 78 % 1005,5 hPa 0,0 l/m O 16,5 km/h (3 Bft)
01.02.2009 12:00 -2,4 C 78 % 1005,0 hPa 0,0 l/m O 18,6 km/h (3 Bft)
01.02.2009 13:00 -2,3 C 80 % 1004,5 hPa 0,0 l/m O-SO 15,7 km/h (3 Bft)
01.02.2009 14:00 -2,1 C 82 % 1004,1 hPa 0,0 l/m O 12,8 km/h (3 Bft)
01.02.2009 15:00 -2,0 C 82 % 1003,7 hPa 0,2 l/m O 9,3 km/h (2 Bft)
01.02.2009 16:00 -1,9 C 80 % 1003,8 hPa 0,0 l/m O 10,8 km/h (2 Bft)
01.02.2009 17:00 -1,9 C 79 % 1004,1 hPa 0,0 l/m O-NO 7,9 km/h (2 Bft)
01.02.2009 18:00 -2,2 C 81 % 1004,1 hPa 0,0 l/m NO 9,4 km/h (2 Bft)
01.02.2009 19:00 -2,6 C 83 % 1004,0 hPa 0,0 l/m O-SO 10,2 km/h (2 Bft)
01.02.2009 20:00 -2,7 C 83 % 1003,6 hPa 0,0 l/m N-NO 6,2 km/h (2 Bft)
01.02.2009 21:00 -2,8 C 84 % 1003,7 hPa 0,0 l/m NO 6,0 km/h (2 Bft)
01.02.2009 22:00 -2,7 C 84 % 1003,6 hPa 0,0 l/m NO 6,7 km/h (2 Bft)
01.02.2009 23:00 -2,9 C 85 % 1003,6 hPa 0,0 l/m NO 7,8 km/h (2 Bft)
Min-Datum _ 26.01.09 31.01.09 26.01.09 - - 26.01.09
_ Min-Zeit 08:15 22:30 01:30 - - 00:20
Minimum _ -6,2 C 70 % 997,8 hPa - - 0,0 km/h (0 Bft)
Max-Datum _ 26.01.09 26.01.09 30.01.09 01.02.09 - 30.01.09
_ Max-Zeit 14:30 09:35 11:40 15:15 - 15:25
Maximum _ 3,3 C 97 % 1022,0 hPa 0,2 l/m - 30,6 km/h
O-NO (5 Bft)
Durchschnitt _ -2,1 C 85 % 1013,2 hPa #0,2 l/m O 11,5 km/h (2 Bft)